Regional Weather Roundup
Issued by NWS

Home | Current Version | Previous Version | Text Only | Print | Product List | Glossary On
Versions: 1 2 3 4 5 6 7 8 9 10 11 12 13 14 15 16 17 18 19 20 21 22 23 24 25 26 27 28 29 30 31 32 33 34 35 36 37 38 39 40 41 42 43 44 45 46 47 48 49 50
000
ASUS46 KSTO 191915
RWRCA

NORTHERN AND CENTRAL CA REGIONAL WEATHER ROUNDUP
NATIONAL WEATHER SERVICE SACRAMENTO CA
1200 PM PDT TUE SEP 19 2017

NOTE: FAIR INDICATES FEW OR NO CLOUDS BELOW 12,000 FEET WITH NO
SIGNIFICANT WEATHER AND/OR OBSTRUCTIONS TO VISIBILITY.

CAZ001-003-192000-
NORTHWEST AREA

CITY           SKY/WX    TMP DP  RH WIND       PRES   REMARKS
CRESCENT CITY  MOSUNNY   62  56  80 S15       30.08S
UKIAH          MOSUNNY   70  44  39 NW13G18   30.06F
$$

CAZ006-505>513-192000-
BAY AREA

CITY           SKY/WX    TMP DP  RH WIND       PRES   REMARKS
SANTA ROSA     MOSUNNY   75  44  33 N14G21    30.02F
SAN RAFAEL     N/A       68  MM  MM MISG
NAPA           SUNNY     72  45  37 SW7       30.03F
CONCORD        SUNNY     70  45  40 CALM      30.03F
OAKLAND CITY   N/A      MM  MM  MM MISG
OAKLAND        MOSUNNY   70  48  45 W13       30.05F
SAN FRAN CITY  N/A       67  MM  52 MISG
SAN FRAN ARPT  PTSUNNY   68  50  52 NE3       30.04F
LIVERMORE      SUNNY     69  46  43 S6        30.02F
HAYWARD        MOSUNNY   70  45  40 W12       30.04F
REDWOOD CITY   N/A       69  MM  48 MISG
MOFFETT ARPT   SUNNY     70  49  47 NW9       30.05F
SAN JOSE ARPT  MOSUNNY   70  49  47 NW10      30.04F
$$
CAZ034-037-514>518-192000-
CENTRAL COAST

CITY           SKY/WX    TMP DP  RH WIND       PRES   REMARKS
WATSONVILLE    SUNNY     69  51  52 S10       30.04S
SALINAS        SUNNY     69  50  50 W12       30.03F
MONTEREY       SUNNY     66  53  63 W13       30.06S
SAN LUIS OBISP SUNNY     78  50  37 NW15      29.94F
SANTA MARIA    SUNNY     71  51  49 NW17      29.95F
$$
CAZ015-016-192000-
NORTHERN SACRAMENTO VALLEY

CITY           SKY/WX    TMP DP  RH WIND       PRES   REMARKS
REDDING        SUNNY     71  41  33 VRB3      30.00S
RED BLUFF      SUNNY     74  40  29 W10G23    30.01S
OROVILLE       SUNNY     71  48  43 W8        30.03F
$$
CAZ016>018-192000-
SOUTHERN SACRAMENTO VALLEY

CITY           SKY/WX    TMP DP  RH WIND       PRES   REMARKS
AUBURN         SUNNY     68  68 100 N7        30.02F
BEALE AFB      SUNNY     73  45  37 NW10      29.99F
LINCOLN        FAIR      72  41  33 NW9       30.01F
MARYSVILLE     SUNNY     73  43  33 NW9       30.02F
SAC INTL ARPT  MOSUNNY   72  45  37 N10       30.01F
MATHER AIRPORT SUNNY     72  45  37 NW10      30.01S
DOWNTOWN SAC   N/A       73  MM  MM MISG
SAC EXEC ARPT  SUNNY     72  46  39 N10       30.02F
VACAVILLE      SUNNY     74  43  32 E7        30.03F
TRAVIS AFB     SUNNY     74  42  32 SW3       30.00F
$$
CAZ019>021-192000-
SAN JOAQUIN VALLEY

CITY           SKY/WX    TMP DP  RH WIND       PRES   REMARKS
STOCKTON       SUNNY     75  47  36 NW15G23   30.00F
MODESTO        SUNNY     75  46  35 NW17G24   29.99F
MERCED         SUNNY     73  46  38 NW13      29.99F
LEMOORE        MOSUNNY   77  45  32 NW13G21   29.99F
FRESNO         MOSUNNY   72  46  39 W9        29.99F
HANFORD        SUNNY     75  47  36 NW9       30.00S
PORTERVILLE      N/A     72  49  44 NW8       30.00F
BAKERSFIELD    CLOUDY    71  46  40 NW9       29.99F
$$
CAZ011-012-071-192000-
NORTHERN MOUNTAINS

CITY           SKY/WX    TMP DP  RH WIND       PRES   REMARKS
YREKA          PTSUNNY   57  39  51 VRB3      30.04S
MOUNT SHASTA   PTSUNNY   60  37  42 W3        30.02S
ALTURAS        CLOUDY    53  30  41 W12       30.03S
$$
CAZ011-012-071-192000-
SIERRA NEVADA MTNS

CITY           SKY/WX    TMP DP  RH WIND       PRES   REMARKS
BLUE CANYON    SUNNY     52  41  66 SW6       30.09F
TRUCKEE        SUNNY     57  16  19 W8G17     30.07
TAHOE VLY ARPT SUNNY     58  34  40 S10G23    30.05S
MAMMOTH LAKES  FAIR      70  21  15 NW21G31   30.03R
$$




USA.gov is the U.S. government's official web portal to all federal, state and local government web resources and services.